User: anonymous   Login
Location: Unspecified
(0.0000°N, 0.0000°E)
Time: 02:58:27
(UTC+00:00)
Language:

USA 198 - Orbit

View from above orbital plane
View from above orbital plane
View from above satellite
View from above satellite

Ground track
Ground track

The orbit data is extracted from the following two-line orbital elements,

1 32378U 07060A   17224.66555027 0.00000000  00000-0  00000-0 0    01
2 32378  64.0308 203.3881 6995754 266.6792  18.2283  2.00615000    02
Epoch (UTC): 12 August 2017 15:58:23
Eccentricity: 0.6995754
inclination: 64.0308°
perigee height: 1600 km
apogee height: 38755 km
right ascension of ascending node: 203.3881°
argument of perigee: 266.6792°
revolutions per day: 2.00615000
mean anomaly at epoch: 18.2283°
orbit number at epoch: 0

The dashed part of the orbit path shows where the satellite is in the earth's shadow,  

DLR